DLH1379 ENTC-ENNA

Flight info

Callsign DLH1379
Flight time N/A
Altitude 23000
Route ERPUG DCT LUVED
Aircraft A319/M-SDE3FGHIRWY/LB1

Departure

Time 2026-05-04 10:49
Airport Tromsø Airport (ENTC)

Arrival

Time N/A
Airport Lakselv Airport, Banak (ENNA)
Time Latitude Longitude Altitude Speed Heading
2026-05-04 10:00 69.67752 18.90792 16 ft 0 kts 283°
2026-05-04 10:39 69.67752 18.90791 16 ft 0 kts 283°
2026-05-04 10:39 69.67750 18.90822 17 ft 2 kts 283°
2026-05-04 10:39 69.67746 18.90865 18 ft 2 kts 283°
2026-05-04 10:40 69.67742 18.90907 18 ft 2 kts 283°
2026-05-04 10:40 69.67740 18.90935 19 ft 0 kts 283°
2026-05-04 10:40 69.67738 18.90975 19 ft 2 kts 268°
2026-05-04 10:40 69.67740 18.91016 20 ft 2 kts 255°
2026-05-04 10:41 69.67745 18.91056 21 ft 2 kts 240°
2026-05-04 10:41 69.67754 18.91090 22 ft 2 kts 225°
2026-05-04 10:41 69.67766 18.91117 23 ft 2 kts 210°
2026-05-04 10:41 69.67778 18.91134 23 ft 1 kts 196°
2026-05-04 10:42 69.67785 18.91138 23 ft 1 kts 192°
2026-05-04 10:42 69.67786 18.91139 23 ft 0 kts 192°
2026-05-04 10:45 69.67777 18.91134 23 ft 3 kts 193°
2026-05-04 10:45 69.67735 18.91106 22 ft 8 kts 193°
2026-05-04 10:45 69.67664 18.91069 20 ft 11 kts 166°
2026-05-04 10:45 69.67627 18.91218 20 ft 0 kts 103°
2026-05-04 10:46 69.67627 18.91216 20 ft 0 kts 103°
2026-05-04 10:46 69.67626 18.91223 20 ft 0 kts 103°
2026-05-04 10:46 69.67626 18.91228 21 ft 0 kts 103°
2026-05-04 10:47 69.67625 18.91245 21 ft 1 kts 103°
2026-05-04 10:47 69.67622 18.91275 22 ft 1 kts 103°
2026-05-04 10:47 69.67621 18.91346 23 ft 5 kts 79°
2026-05-04 10:47 69.67651 18.91433 26 ft 8 kts 23°
2026-05-04 10:49 69.73364 18.95424 3535 ft 154 kts 26°
2026-05-04 10:49 69.74138 18.97757 4038 ft 177 kts 60°
2026-05-04 10:50 69.74496 19.01418 4472 ft 201 kts 74°
2026-05-04 10:51 69.80095 19.33848 8926 ft 299 kts 81°
2026-05-04 10:52 69.80188 19.39884 9751 ft 303 kts 92°
2026-05-04 10:52 69.80109 19.46058 10370 ft 316 kts 94°
2026-05-04 10:52 69.79996 19.52500 10817 ft 333 kts 94°
2026-05-04 10:54 69.76800 19.99772 15952 ft 358 kts 105°
2026-05-04 10:54 69.76280 20.06895 16612 ft 362 kts 105°
2026-05-04 10:56 69.72476 20.58354 20738 ft 390 kts 104°
2026-05-04 10:56 69.71896 20.66025 21278 ft 393 kts 105°
2026-05-04 10:56 69.71312 20.73716 21805 ft 397 kts 105°
2026-05-04 10:57 69.70715 20.81508 22300 ft 401 kts 105°
2026-05-04 10:57 69.70105 20.89434 22540 ft 403 kts 105°
2026-05-04 10:57 69.69502 20.97199 22546 ft 402 kts 105°
2026-05-04 10:57 69.68881 21.05147 22548 ft 402 kts 105°
2026-05-04 10:58 69.68272 21.12883 22548 ft 402 kts 104°
2026-05-04 10:58 69.67653 21.20731 22548 ft 402 kts 104°
2026-05-04 10:58 69.67036 21.28512 22549 ft 402 kts 104°
2026-05-04 10:58 69.66409 21.36376 22548 ft 402 kts 104°
2026-05-04 10:59 69.65786 21.44129 22548 ft 402 kts 104°
2026-05-04 10:59 69.65153 21.51948 22548 ft 402 kts 104°
2026-05-04 10:59 69.64517 21.59766 22548 ft 402 kts 104°
2026-05-04 10:59 69.63877 21.67575 22548 ft 402 kts 105°
2026-05-04 11:00 69.63239 21.75318 22549 ft 401 kts 105°
2026-05-04 11:01 69.58654 22.29657 22073 ft 398 kts 105°
2026-05-04 11:02 69.57989 22.37331 21818 ft 396 kts 105°
2026-05-04 11:02 69.57360 22.44882 21564 ft 395 kts 101°
2026-05-04 11:05 69.81071 23.22039 15948 ft 362 kts 43°
2026-05-04 11:06 69.82893 23.27134 15518 ft 360 kts 43°
2026-05-04 11:06 69.84669 23.32110 15098 ft 359 kts 43°
2026-05-04 11:06 69.86454 23.37126 14673 ft 357 kts 43°
2026-05-04 11:06 69.88217 23.42094 14252 ft 355 kts 43°
2026-05-04 11:08 70.00272 23.76390 11359 ft 338 kts 44°
2026-05-04 11:10 70.11339 24.08402 9300 ft 293 kts 43°
2026-05-04 11:12 70.21171 24.37283 6955 ft 279 kts 45°
2026-05-04 11:12 70.22536 24.41339 6635 ft 277 kts 44°
2026-05-04 11:12 70.23879 24.45337 6309 ft 275 kts 44°
2026-05-04 11:12 70.25236 24.49368 5982 ft 274 kts 45°
2026-05-04 11:13 70.26572 24.53333 5669 ft 272 kts 45°
2026-05-04 11:13 70.27882 24.57245 5359 ft 270 kts 45°
2026-05-04 11:13 70.29209 24.61201 5061 ft 267 kts 45°
2026-05-04 11:13 70.30475 24.65041 4955 ft 256 kts 49°
2026-05-04 11:14 70.31277 24.69555 4816 ft 245 kts 82°
2026-05-04 11:14 70.31147 24.74519 4543 ft 239 kts 107°
2026-05-04 11:14 70.30682 24.79186 4269 ft 237 kts 110°
2026-05-04 11:16 70.24023 24.93214 3381 ft 145 kts 180°
2026-05-04 11:16 70.23073 24.93280 3250 ft 129 kts 181°
2026-05-04 11:16 70.22192 24.93503 3144 ft 127 kts 173°
2026-05-04 11:17 70.21319 24.93951 2949 ft 127 kts 175°
2026-05-04 11:17 70.20443 24.94198 2762 ft 126 kts 176°
2026-05-04 11:19 70.14403 24.95590 1391 ft 124 kts 178°
2026-05-04 11:19 70.13540 24.95790 1192 ft 124 kts 176°
2026-05-04 11:19 70.12689 24.95994 982 ft 124 kts 178°
2026-05-04 11:19 70.11832 24.96182 807 ft 124 kts 178°
2026-05-04 11:20 70.10970 24.96373 627 ft 124 kts 177°
2026-05-04 11:20 70.10120 24.96586 438 ft 123 kts 176°
2026-05-04 11:20 70.09264 24.96790 244 ft 122 kts 177°
2026-05-04 11:20 70.08421 24.96977 82 ft 121 kts 175°